Location: B�retswil
(47.3376°N, 8.8534°E)
Time: 21:17:18
(UTC+00:00)

Cosmos 1437 - Pass Details

Date: 03 March 2021
Orbit: 348 x 351 km, 81.2° (Epoch: 14 April)

Event Time Altitude Azimuth Distance (km) Brightness Sun altitude
Rises 17:51:19 0° 341° (NNW) 2,181 6.6 -7.3°
Reaches altitude 10° 17:53:22 10° 332° (NNW) 1,333 5.7 -7.7°
Maximum altitude 17:56:02 35° 264° (W) 604 4.4 -8.1°
Drops below altitude 10° 17:58:41 10° 196° (SSW) 1,327 5.5 -8.6°
Sets 18:00:43 0° 187° (S) 2,168 6.5 -8.9°
